Location: Blazny
(46.0612°N, 84.4033°W)
Time: 09:11:05
(UTC-04:00)

ARIANE 6 FM1 Upper Stage - Pass Details

Date: 19 September 2024
Orbit: 564 x 594 km, 62.0° (Epoch: 03 October)

Event Time Altitude Azimuth Distance (km) Brightness Sun altitude
Exits shadow 04:52:26 10° 331° (NNW) 1,954 5.4 -25.3°
Reaches altitude 10° 04:52:30 10° 331° (NNW) 1,934 5.4 -25.3°
Maximum altitude 04:56:34 36° 39° (NE) 944 4.2 -24.7°
Drops below altitude 10° 05:00:37 10° 107° (ESE) 1,931 5.9 -24.1°
Sets 05:03:01 0° 116° (ESE) 2,830 6.7 -23.8°
